Huntington, WV

3:07 PM EDT on September 21, 2017 (GMT -0400)
Tri-State / Ferguson

Weather History for KHTS - April, 2014

Change the Weather History Date:

Saturday, April 26, 2014

  Actual Average Record
Temperature  
Mean Temperature 62 °F 59 °F  
Max Temperature 79 °F 71 °F 92 °F (1957)
Min Temperature 44 °F 48 °F 32 °F (1919)
Degree Days  
Heating Degree Days 3 7  
Month to date heating degree days 198 266  
Since 1 July heating degree days 4699 4363  
Cooling Degree Days 0 1  
Month to date cooling degree days 14 25  
Year to date cooling degree days 14 30  
Growing Degree Days 12 (Base 50)    
Moisture  
Dew Point 43 °F    
Average Humidity 62    
Maximum Humidity 100    
Minimum Humidity 23    
Precipitation  
Precipitation T in 0.12 in 1.70 in (1914)
Month to date precipitation 2.20 2.95  
Year to date precipitation 12.67 12.89  
Snow  
Snow 0.00 in - - ()
Month to date snowfall T  
Since 1 September snowfall 36.8  
Snow Depth 0.00 in    
Sea Level Pressure  
Sea Level Pressure 29.92 in    
Wind  
Wind Speed 8 mph (SW)    
Max Wind Speed 22 mph    
Max Gust Speed 30 mph    
Visibility 9 miles    
Events Rain    
T = Trace of Precipitation, MM = Missing Value Source: NWS Daily Summary

Daily Weather History Graph

Daily Weather History Graph

Search for Another Location

Airport or City:

Trip Planner

Search our weather history database for the weather conditions in past years. The results will help you decide how hot, cold, wet, or windy it might be!

Date:

Astronomy

Apr. 26, 2014 Rise Set
Actual Time 6:39 AM EDT 8:17 PM EDT
Civil Twilight 6:11 AM EDT 8:45 PM EDT
Nautical Twilight 5:37 AM EDT 9:19 PM EDT
Astronomical Twilight 5:01 AM EDT 9:55 PM EDT
Moon 5:00 AM EDT (4/26) 5:46 PM EDT (4/26)
Length of Visible Light 14h 33m
Length of Day
13h 37m
Waning Crescent, 8% of the Moon is Illuminated
Apr 26
Waning Crescent
Apr 29
New
May 6
First Quarter
May 14
Full
May 21
Last Quarter

Hourly Weather History & Observations

Time (EDT) Temp. Windchill Dew Point Humidity Pressure Visibility Wind Dir Wind Speed Gust Speed Precip Events Conditions
12:51 AM 48.0 °F - 46.9 °F 96% 29.95 in 4.0 mi Calm Calm - N/A   Clear
1:51 AM 46.4 °F 45.2 °F 46.4 °F 100% 29.95 in 5.0 mi SSW 3.5 mph - N/A   Clear
2:51 AM 46.0 °F 44.8 °F 46.0 °F 100% 29.92 in 5.0 mi SW 3.5 mph - N/A   Clear
3:39 AM 45.0 °F 42.6 °F 45.0 °F 100% 29.92 in 2.5 mi SSW 4.6 mph - N/A   Clear
3:46 AM 44.6 °F 42.2 °F 44.6 °F 100% 29.92 in 3.0 mi SSW 4.6 mph - N/A   Clear
3:51 AM 45.0 °F 41.8 °F 45.0 °F 100% 29.92 in 8.0 mi SSW 5.8 mph - N/A   Clear
4:51 AM 45.0 °F - 45.0 °F 100% 29.92 in 8.0 mi Calm Calm - N/A   Clear
5:51 AM 45.0 °F 42.6 °F 45.0 °F 100% 29.94 in 10.0 mi SW 4.6 mph - N/A   Clear
6:51 AM 45.0 °F 43.5 °F 45.0 °F 100% 29.94 in 10.0 mi SW 3.5 mph - N/A   Clear
7:51 AM 48.9 °F - 46.0 °F 90% 29.94 in 10.0 mi South 5.8 mph - N/A   Clear
8:51 AM 53.1 °F - 46.9 °F 80% 29.95 in 10.0 mi SSW 5.8 mph - N/A   Clear
9:51 AM 59.0 °F - 48.0 °F 67% 29.96 in 10.0 mi SSW 6.9 mph - N/A   Clear
10:51 AM 66.9 °F - 45.0 °F 45% 29.95 in 10.0 mi SW 9.2 mph - N/A   Clear
11:51 AM 71.6 °F - 42.8 °F 35% 29.94 in 10.0 mi SW 8.1 mph - N/A Rain Light Rain
12:51 PM 73.9 °F - 42.1 °F 32% 29.93 in 10.0 mi West 12.7 mph 21.9 mph 0.00 in   Clear
1:51 PM 75.9 °F - 42.1 °F 30% 29.91 in 10.0 mi West 9.2 mph - N/A   Clear
2:51 PM 78.1 °F - 42.1 °F 28% 29.90 in 10.0 mi WSW 11.5 mph 18.4 mph 0.00 in   Clear
3:51 PM 78.1 °F - 41.0 °F 27% 29.88 in 10.0 mi SW 16.1 mph 23.0 mph N/A   Clear
4:51 PM 78.8 °F - 37.4 °F 23% 29.89 in 10.0 mi West 15.0 mph 23.0 mph N/A   Clear
5:51 PM 77.0 °F - 37.9 °F 24% 29.88 in 10.0 mi West 11.5 mph 25.3 mph N/A   Clear
6:51 PM 73.9 °F - 39.0 °F 28% 29.89 in 10.0 mi West 13.8 mph - N/A   Clear
7:51 PM 72.0 °F - 39.9 °F 31% 29.88 in 10.0 mi WSW 9.2 mph - N/A   Clear
8:51 PM 70.0 °F - 41.0 °F 35% 29.89 in 10.0 mi WSW 9.2 mph - N/A   Clear
9:51 PM 68.0 °F - 39.9 °F 36% 29.90 in 10.0 mi WSW 8.1 mph - N/A   Clear
10:51 PM 66.9 °F - 39.0 °F 36% 29.91 in 10.0 mi SW 5.8 mph - N/A   Clear
11:51 PM 63.0 °F - 42.1 °F 46% 29.92 in 10.0 mi NNW 6.9 mph - N/A   Clear